STARLINK-33761, 63455

Orbit data source: Space-Track

STARLINK-33761, 63455 is a payload satellite owned by SpaceX/Seattle (US) in LEO that was launched on Fri, 04 Apr 2025 UTC via an FALCON 9 launch vehicle from the Air Force Western Test Range (AFWTR). Payload-class satellites include a variety of spacecraft equipped with specific instruments for various scientific and technological missions. These include communications satellites like Starlink; space stations such as the ISS; scientific satellites like the Hubble; Earth observation satellites from companies like Planet Labs, Umbra, and HawkEye 360; GPS; miniature CubeSats for education and research; and military/defense satellites.

Loading next visibility...
Identifier
63455, 2025-069Y
Orbit
LEO
Country
Flag of USUS
Related business
Manufacturer
SpaceX/Seattle
Mission
Operational Commercial Communications
Bus & Motor
STARLINK V2MO, Unknown motor
Mass
575 kg wet, ~530 kg dry
Launch date (UTC)
2025-04-04 (1 year ago)
Launch vehicle
FALCON 9
Launch site
Air Force Western Test Range (AFWTR)
Object type
Payload
Rocket body
Debris
Shape & HBR
Box + 2 Pan, 17.7 m
Radar Cross Section
36.964 m², Large (>1 m²)

Expand to show TLE details & history
Last TLE update: 11 hours ago

TLE from 11 hours ago
0 STARLINK-33761
1 63455U 25069Y   26145.37401002  .00031353  00000-0  72645-3 0  9992
2 63455  53.1591 143.5585 0001109  77.0696 283.0434 15.42181943 65188
Epoch: 2026-05-25T08:58Z
TLE epoch observation values (Epoch: 2026-05-25T08:58:34.465Z)
Latitude
-0.00002°
Longitude
125.95216°
Altitude
440.405 km
Speed
7.649 km/s
True Right ascension
09h 34m 14s
True Declination
0° 00' 00"
Sunlit
Object was in daylight at epoch
Visualization orbit readout
Latitude
Unknown
Longitude
Unknown
Altitude
Unknown
Speed
Unknown
Apparent Right ascension
Unknown
Apparent Declination
Unknown
Sunlit
N/A
Visualization observer readout
Local Sidereal Time
04:52:56
Azimuth
Unknown
Elevation
Unknown
Doppler factor
Unknown
Orbital elements
Apogee altitude
440.685 km
Perigee altitude
439.173 km
Semi-major axis
6,818.066 km
Eccentricity
0.00011
Inclination
53.1591°
RAAN
143.5585°
Arg. of periapsis
77.0696°
True anomaly
283.03102°
Mean anomaly
283.0434°
Eccentric anomaly
283.03721°
Mean motion
3.85524 °/min
Orbital period
93.38 mins
BSTAR
0.00072645
Loading maneuver chart data...
Computing Atmospheric mass density...
Loading historical data...
Loading historical data...
Loading historical data...
Loading historical data...
Loading historical data...
Loading historical data...
Loading historical data...

Documentation

Showing up to 5 results
|